Regional Weather Roundup
Issued by NWS

Home | Current Version | Previous Version | Graphics & Text | Print | Product List | Glossary On
Versions: 1 2 3 4 5 6 7 8 9 10 11 12 13 14 15 16 17 18 19 20 21 22 23 24 25 26 27 28 29 30 31 32 33 34 35 36 37 38 39 40 41 42 43 44 45 46 47 48 49 50
000
ASUS43 KBIS 230002
RWRND

NORTH DAKOTA REGIONAL WEATHER ROUNDUP
NATIONAL WEATHER SERVICE BISMARCK ND
700 PM CDT FRI JUL 22 2016

NOTE: "FAIR" INDICATES FEW OR NO CLOUDS BELOW 12,000 FEET WITH NO
SIGNIFICANT WEATHER AND/OR OBSTRUCTIONS TO VISIBILITY.


NDZ001>003-009>011-017-230100-
NORTHWEST NORTH DAKOTA

CITY           SKY/WX    TMP DP  RH WIND       PRES   REMARKS
WILLISTON      PTSUNNY   86  61  42 E18G28    29.87F
6HR MIN TEMP:  86; 6HR MAX TEMP:  94;

MINOT          SUNNY     85  63  47 NE14      29.94F
MINOT AFB      SUNNY     83  62  50 E18       29.93F
$$

NDZ018>021-031>035-040>046-230100-
SOUTHWEST NORTH DAKOTA

CITY           SKY/WX    TMP DP  RH WIND       PRES   REMARKS
BISMARCK       CLOUDY    83  73  72 E15       29.92R THUNDER
6HR MIN TEMP:  83; 6HR MAX TEMP:  90;

DICKINSON      PTSUNNY   83  67  58 E12       29.87F
GARRISON         N/A     85  66  53 E16G24    29.93F
6HR MIN TEMP:  78; 6HR MAX TEMP:  86;

HETTINGER ARPT CLOUDY    78  61  55 S21G29    29.98R
$$

NDZ004>008-012>016-024-026-027-054-230100-
NORTHEAST NORTH DAKOTA

CITY           SKY/WX    TMP DP  RH WIND       PRES   REMARKS
GRAND FORKS    CLOUDY    81  64  56 NE8       29.96F
GRND FRKS AFB  CLOUDY    80  64  57 NE9       29.97F
DEVILS LAKE    CLOUDY    80  65  59 NE10      29.98F
$$

NDZ022-023-025-028>030-036>039-047>053-230100-
SOUTHEAST NORTH DAKOTA

CITY           SKY/WX    TMP DP  RH WIND       PRES   REMARKS
FARGO          SUNNY     85  69  58 NE10      29.94F
6HR MIN TEMP:  84; 6HR MAX TEMP:  92;

JAMESTOWN      CLOUDY    80  70  71 E9        29.98S
$$





USA.gov is the U.S. government's official web portal to all federal, state and local government web resources and services.